NOAA 16 DEB, 42413

Orbit data source: Space-Track

NOAA 16 DEB, 42413 is space debris in SSO originally from a launch on Thu, 21 Sep 2000 UTC launched from the Air Force Western Test Range (AFWTR). Debris objects in space refer to the collection of defunct objects orbiting the Earth. Examples of debris include non-operational satellites, rocket bodies, and fragments generated from explosions, collisions, or faulty payload assembly.

Loading next visibility...
Identifier
42413, 2000-055TH
Orbit
SSO
Country
Flag of USUS
Related business
Manufacturer
Unknown
Mission
Spacecraft
Bus & Motor
Unknown
Mass
Unknown
Launch date (UTC)
2000-09-21 (25 years ago)
Launch vehicle
Unknown
Launch site
Air Force Western Test Range (AFWTR)
Object type
Payload
Rocket body
Debris
Shape & HBR
Unknown shape, 0.1 m
Radar Cross Section
Small (<0.1 m²)

Expand to show TLE details & history
Last TLE update: 19 hours ago

TLE from 19 hours ago
0 NOAA 16 DEB
1 42413U 00055TH  25342.38329884  .00010014  00000-0  28682-2 0  9999
2 42413  98.9271 137.7595 0021683 329.1062  30.8850 14.45058063507903
Epoch: 2025-12-08T09:11Z
TLE epoch observation values (Epoch: 2025-12-08T09:11:57.019Z)
Latitude
-0.00009°
Longitude
-77.61118°
Altitude
731.534 km
Speed
7.496 km/s
True Right ascension
09h 11m 02s
True Declination
0° 00' 00"
Sunlit
Object was in daylight at epoch
Visualization orbit readout
Latitude
Unknown
Longitude
Unknown
Altitude
Unknown
Speed
Unknown
Apparent Right ascension
Unknown
Apparent Declination
Unknown
Sunlit
N/A
Visualization observer readout
Local Sidereal Time
02:49:03
Azimuth
Unknown
Elevation
Unknown
Doppler factor
Unknown
Orbital elements
Apogee altitude
754.403 km
Perigee altitude
723.539 km
Semi-major axis
7,117.108 km
Eccentricity
0.00217
Inclination
98.9271°
RAAN
137.7595°
Arg. of periapsis
329.1062°
True anomaly
31.01284°
Mean anomaly
30.885°
Eccentric anomaly
30.94889°
Mean motion
3.61483 °/min
Orbital period
99.59 mins
BSTAR
0.0028682
Loading maneuver chart data...
Computing Atmospheric mass density...
Loading historical data...
Loading historical data...
Loading historical data...
Loading historical data...
Loading historical data...
Loading historical data...
Loading historical data...

Documentation

Showing up to 5 results
|